Погода в Сент-Луисе

США     38°38′08″N   90°14′26″W
темп.,
°C
ветер,
м/с
пор.,
м/с
влажн.,
%
обл.,
%
осадки,
мм/ч
давл.,
гПа
погр.,
м
15 мая, сб
сб1501:00+13ююв395810 0.0 1022242
04:00+13ю31055100 0.0 1022292
07:00+13в2258100 0.1 102376
10:00+12вюв2485100 0.9 1022141
13:00+19ююв5856100 0.9 10211006
16:00+19ююз5857100 0.0 1020798
19:00+17ююз5869100 0.0 1019643
22:00+15ююв3682100 0.0 1019330
16 мая, вс
вс1601:00+14ююв2490100 0.1 1019224
04:00+14ююв139496 0.1 1019136
07:00+15вюв119399 0.1 102085
10:00+17юв2284100 0.0 1020391
13:00+21юв3472100 0.6 1019737
16:00+22в3374100 1.8 1016742
19:00+18всв3796100 21.6 1017253
22:00+17всв3897100 6.5 1018306
17 мая, пн
пн1701:00+16в3995100 7.7 1016232
04:00+16вюв3799100 3.6 1016264
07:00+16вюв3899100 6.9 1016273
10:00+16юв41199100 9.3 1016548
13:00+17юв41196100 13.2 1016540
16:00+18юв51194100 1.1 1014729
19:00+18вюв51098100 14.4 1013565
22:00+18ююв41099100 8.1 1015551
18 мая, вт
вт1801:00+18ююв41098100 10.3 1014498
04:00+18ююв3999100 5.8 1014472
07:00+18юв4998100 7.8 1015390
10:00+19ююв5996100 0.3 1016470
13:00+19ююв51094100 1.1 1016729
16:00+21ю41090100 0.3 1015791
19:00+22ю497691 0.3 1015659
22:00+19ю51285100 0.0 1016536
19 мая, ср
ср1901:00+18ююв3128881 0.0 1016424
04:00+17юв3129398 0.0 1016366
07:00+19ююв5148617 0.0 1018662
10:00+23ююв715645 0.0 10181286
13:00+27ю7124453 0.0 10181975
16:00+28ююв8115316 0.0 10171979
19:00+25ююв712665 0.1 10171141
22:00+22юв5128057 0.0 1019637